Location: Bonnesvalyn
(49.1218°N, 3.3177°E)
Time: 15:57:36
(UTC+00:00)

Cosmos 2058 Rocket - Pass Details

Date: 09 February 2023
Orbit: 610 x 637 km, 82.5° (Epoch: 25 March)

Event Time Altitude Azimuth Distance (km) Brightness Sun altitude
Rises 18:15:03 0° 346° (NNW) 2,908 6.6 -13.3°
Reaches altitude 10° 18:17:18 10° 342° (NNW) 2,001 5.8 -13.6°
Maximum altitude 18:21:37 54° 266° (W) 763 3.9 -14.3°
Drops below altitude 10° 18:25:57 10° 189° (S) 2,002 5.8 -15.0°
Sets 18:28:13 0° 184° (S) 2,908 6.6 -15.4°
